1°C
Woerden, The Nederlands
Taal:  Nederlands
Updated13/12/2018 19:15 
 
Station Historical Data
Daily Summary for October 12, 2018 Units:  English    Metric   Both
Next Day »
Daily Weekly Monthly Yearly Custom
  High: Low: Average:
Temperature: 72.7 °F 56.7 °F 64.9 °F
Dew Point: 61 °F 53.1 °F 57.6 °F
Humidity: 89% 59% 78%
Wind Speed: 22mph 5.8mph 11.2mph
Wind Gust: 18mph - -
Wind- - SSE
Pressure: 30 in 29.8 in -
Precipitation: 0.02 in    
Historical Graphs
 
 
Tabular Data for October 12, 2018
Time Temperature Dew Point Pressure Wind Wind Speed Wind Gust Humidity Rainfall Rate (Hourly) solar Conditions
00:04 63.5 °F 56.1 °F 29.8 in SE 11.5 mph 7.3 mph 77% 0 in 0.00 W/m2 CLR
00:09 63.7 °F 55.9 °F 29.8 in SE 10.4 mph 7.5 mph 76% 0 in 0.00 W/m2 CLR
00:14 63.7 °F 55.9 °F 29.8 in SSE 12 mph 7.3 mph 76% 0 in 0.00 W/m2 CLR
00:19 63.9 °F 56.1 °F 29.8 in SE 10.4 mph 8 mph 76% 0 in 0.00 W/m2 CLR
00:24 64 °F 56.3 °F 29.8 in SE 10.4 mph 8.1 mph 76% 0 in 0.00 W/m2 CLR
00:29 64.2 °F 56.1 °F 29.8 in SSE 10.4 mph 7.3 mph 75% 0 in 0.00 W/m2 CLR
00:34 64.4 °F 56.3 °F 29.8 in South 10 mph 5.7 mph 75% 0 in 0.00 W/m2 CLR
00:38 64.4 °F 56.3 °F 29.8 in South 6.9 mph 4.4 mph 75% 0 in 0.00 W/m2 CLR
00:44 64 °F 55.9 °F 29.8 in South 7 mph 4.5 mph 75% 0 in 0.00 W/m2 CLR
00:49 64 °F 56.3 °F 29.8 in South 6 mph 4.3 mph 76% 0 in 0.00 W/m2 CLR
00:54 64 °F 56.3 °F 29.9 in South 6 mph 3.7 mph 76% 0 in 0.00 W/m2 CLR
00:59 64 °F 56.3 °F 29.9 in South 7 mph 3.8 mph 76% 0 in 0.00 W/m2 CLR
01:04 64 °F 56.7 °F 29.9 in SSE 10 mph 4.7 mph 77% 0 in 0.00 W/m2 CLR
01:09 63.9 °F 56.5 °F 29.9 in SSE 11.5 mph 6.2 mph 77% 0 in 0.00 W/m2 CLR
01:14 63.7 °F 56.5 °F 29.9 in SSE 11.5 mph 6 mph 77% 0 in 0.00 W/m2 CLR
01:19 63.3 °F 56.8 °F 29.9 in South 10.4 mph 6.4 mph 79% 0 in 0.00 W/m2 CLR
01:24 63.5 °F 56.8 °F 29.9 in SSE 12.7 mph 8.8 mph 79% 0 in 0.00 W/m2 CLR
01:29 63.9 °F 57.2 °F 29.9 in SSW 12.7 mph 9.5 mph 79% 0 in 0.00 W/m2 CLR
01:34 63.7 °F 57.4 °F 29.9 in SSE 13 mph 7.6 mph 80% 0.01 in 0.00 W/m2 RA
01:39 63.3 °F 57 °F 29.9 in SSE 11.5 mph 8.3 mph 80% 0.01 in 0.00 W/m2 RA
01:44 63.1 °F 57.2 °F 29.8 in South 11.5 mph 9.8 mph 81% 0.02 in 0.00 W/m2 RA
01:49 62.8 °F 57.2 °F 29.8 in South 11.5 mph 8.1 mph 82% 0.02 in 0.00 W/m2 RA
01:54 62.4 °F 57.4 °F 29.8 in SSE 10.4 mph 6.7 mph 83% 0.02 in 0.00 W/m2 RA
01:59 62.2 °F 57 °F 29.8 in SSE 9.2 mph 5.6 mph 83% 0.02 in 0.00 W/m2
02:04 62.1 °F 57.2 °F 29.8 in SSE 11 mph 4.3 mph 84% 0.02 in 0.00 W/m2 CLR
02:09 62.1 °F 57.2 °F 29.8 in SSE 8.1 mph 5.3 mph 84% 0.02 in 0.00 W/m2 CLR
02:14 62.1 °F 57 °F 29.9 in SSE 8.1 mph 5.3 mph 84% 0.02 in 0.00 W/m2 CLR
02:19 62.1 °F 57.2 °F 29.9 in SSE 8.1 mph 5.7 mph 84% 0.02 in 0.00 W/m2 CLR
02:24 62.1 °F 57.6 °F 29.9 in SSE 8.1 mph 6 mph 85% 0.02 in 0.00 W/m2 CLR
02:29 62.1 °F 57.6 °F 29.9 in SSE 9.2 mph 6 mph 85% 0.02 in 0.00 W/m2 CLR
02:34 62.1 °F 57.6 °F 29.9 in SSE 10.4 mph 6.4 mph 85% 0.02 in 0.00 W/m2 CLR
02:39 62.1 °F 57.6 °F 29.9 in SSE 10.4 mph 7.1 mph 85% 0.02 in 0.00 W/m2 CLR
02:44 62.1 °F 57.6 °F 29.9 in SSE 10.4 mph 6.7 mph 85% 0.02 in 0.00 W/m2 CLR
02:49 62.1 °F 57.4 °F 29.9 in South 8.1 mph 5.8 mph 85% 0.01 in 0.00 W/m2 CLR
02:54 62.2 °F 57.7 °F 29.9 in SSE 13.8 mph 8.2 mph 85% 0.01 in 0.00 W/m2 CLR
02:59 62.8 °F 57.7 °F 29.9 in SSE 13.8 mph 9.7 mph 84% 0 in 0.00 W/m2 CLR
03:04 63 °F 57.7 °F 29.9 in SSE 12 mph 7.8 mph 83% 0 in 0.00 W/m2 CLR
03:09 63.1 °F 57.9 °F 29.9 in SSE 13.8 mph 8.2 mph 83% 0 in 0.00 W/m2 CLR
03:14 63.3 °F 57.7 °F 29.9 in SSE 15 mph 10 mph 82% 0 in 0.00 W/m2 CLR
03:19 63.3 °F 57.7 °F 29.9 in SSE 15 mph 9.3 mph 82% 0 in 0.00 W/m2 CLR
03:24 63.1 °F 57.6 °F 29.9 in SSE 12 mph 8.9 mph 82% 0 in 0.00 W/m2 CLR
03:29 63.1 °F 57.9 °F 29.9 in SSE 11.5 mph 8.6 mph 83% 0 in 0.00 W/m2 CLR
03:34 63 °F 57.7 °F 29.9 in SSW 12.7 mph 8.6 mph 83% 0 in 0.00 W/m2 CLR
03:39 63 °F 57.7 °F 29.9 in SSE 13 mph 9.3 mph 83% 0 in 0.00 W/m2 CLR
03:44 63 °F 57.7 °F 29.9 in South 12.7 mph 8.5 mph 83% 0 in 0.00 W/m2 CLR
03:49 62.8 °F 57.6 °F 29.9 in SSW 11.5 mph 8.6 mph 83% 0 in 0.00 W/m2 CLR
03:54 62.4 °F 57.6 °F 29.9 in SSE 13.8 mph 8.9 mph 84% 0 in 0.00 W/m2 CLR
03:59 62.2 °F 57.4 °F 29.9 in SSW 15 mph 8.3 mph 84% 0 in 0.00 W/m2 CLR
04:04 62.2 °F 57.4 °F 29.9 in SSW 11.5 mph 7.7 mph 84% 0 in 0.00 W/m2 CLR
04:07 62.1 °F 57.2 °F 29.9 in SSE 11.5 mph 7.9 mph 84% 0 in 0.00 W/m2 CLR
04:14 62.1 °F 57 °F 29.9 in South 10.4 mph 5.7 mph 84% 0 in 0.00 W/m2 CLR
04:19 61.9 °F 56.8 °F 29.9 in South 11 mph 5.8 mph 84% 0 in 0.00 W/m2 CLR
04:24 61.7 °F 56.8 °F 29.9 in SW 11 mph 5.3 mph 84% 0 in 0.00 W/m2 CLR
04:29 61.5 °F 56.7 °F 29.9 in SW 8.1 mph 6.1 mph 84% 0 in 0.00 W/m2 CLR
04:34 61.5 °F 56.7 °F 29.9 in South 11 mph 6.3 mph 84% 0 in 0.00 W/m2 CLR
04:39 61.3 °F 56.5 °F 29.9 in SSW 10.4 mph 5.4 mph 84% 0 in 0.00 W/m2 CLR
04:43 61.2 °F 56.3 °F 29.9 in SSE 9.2 mph 4.5 mph 84% 0 in 0.00 W/m2 CLR
04:49 61 °F 56.1 °F 29.9 in SSW 9.2 mph 5.8 mph 84% 0 in 0.00 W/m2 CLR
04:53 60.8 °F 55.9 °F 29.9 in South 8.1 mph 4.7 mph 84% 0 in 0.00 W/m2 CLR
04:59 60.6 °F 55.8 °F 29.9 in South 7 mph 3.4 mph 84% 0 in 0.00 W/m2 CLR
05:04 60.4 °F 55.6 °F 29.9 in South 6.9 mph 4.4 mph 84% 0 in 0.00 W/m2 CLR
05:08 60.3 °F 55.8 °F 29.9 in SSW 6.9 mph 4 mph 85% 0 in 0.00 W/m2 CLR
05:14 60.3 °F 55.8 °F 29.9 in SSE 6 mph 3.2 mph 85% 0 in 0.00 W/m2 CLR
05:19 60.1 °F 55.6 °F 29.9 in SSW 8.1 mph 5 mph 85% 0 in 0.00 W/m2 CLR
05:24 60.1 °F 55.6 °F 29.9 in South 9.2 mph 5 mph 85% 0 in 0.00 W/m2 CLR
05:29 59.7 °F 55 °F 29.9 in SSE 9.2 mph 5 mph 84% 0 in 0.00 W/m2 CLR
05:33 59.5 °F 55 °F 29.9 in SSE 6.9 mph 4.9 mph 85% 0 in 0.00 W/m2 CLR
05:39 59.2 °F 54.7 °F 29.9 in SSE 7 mph 5 mph 85% 0 in 0.00 W/m2 CLR
05:44 59 °F 54.5 °F 29.9 in South 6 mph 4.8 mph 85% 0 in 0.00 W/m2 CLR
05:49 58.6 °F 54.1 °F 29.9 in SSE 9.2 mph 5.2 mph 85% 0 in 0.00 W/m2 CLR
05:54 58.5 °F 54 °F 29.9 in SSE 9.2 mph 5.7 mph 85% 0 in 0.00 W/m2 CLR
05:59 58.3 °F 54 °F 29.9 in SSE 9.2 mph 6.1 mph 86% 0 in 0.00 W/m2 CLR
06:04 57.9 °F 53.8 °F 29.9 in SSE 9.2 mph 6.4 mph 86% 0 in 0.00 W/m2 CLR
06:08 57.9 °F 53.8 °F 29.9 in South 8.1 mph 5.6 mph 86% 0 in 0.00 W/m2 CLR
06:14 57.6 °F 53.4 °F 29.9 in South 6.9 mph 4.6 mph 86% 0 in 0.00 W/m2 CLR
06:19 57.6 °F 53.2 °F 29.9 in SSE 8 mph 4.9 mph 86% 0 in 0.00 W/m2 CLR
06:24 57.6 °F 53.2 °F 29.9 in South 9 mph 5.5 mph 86% 0 in 0.00 W/m2 CLR
06:29 57.4 °F 53.1 °F 29.9 in SSE 8 mph 5.9 mph 86% 0 in 0.00 W/m2 CLR
06:34 57.2 °F 53.4 °F 29.9 in South 7 mph 6 mph 87% 0 in 0.00 W/m2 CLR
06:39 57 °F 53.2 °F 29.9 in SSE 7 mph 5.3 mph 87% 0 in 0.00 W/m2 CLR
06:44 56.8 °F 53.1 °F 29.9 in SSE 7 mph 5.5 mph 87% 0 in 0.00 W/m2 CLR
06:49 56.8 °F 53.1 °F 29.9 in SSE 6.9 mph 5.6 mph 87% 0 in 0.00 W/m2 CLR
06:54 56.8 °F 53.1 °F 29.9 in SSE 8 mph 4.6 mph 87% 0 in 0.00 W/m2 CLR
06:59 56.8 °F 53.1 °F 29.9 in SSE 8 mph 5.4 mph 87% 0 in 0.00 W/m2 CLR
07:04 56.8 °F 53.1 °F 29.9 in SSE 8.1 mph 6.1 mph 87% 0 in 0.00 W/m2 CLR
07:07 56.8 °F 53.1 °F 29.9 in SSE 8.1 mph 5.8 mph 87% 0 in 0.00 W/m2 CLR
07:13 56.8 °F 53.2 °F 29.9 in SSE 6.9 mph 5.1 mph 88% 0 in 0.00 W/m2 CLR
07:19 56.8 °F 53.2 °F 29.9 in SSE 6.9 mph 5.2 mph 88% 0 in 0.00 W/m2 CLR
07:24 56.7 °F 53.1 °F 30 in SSE 7 mph 4.8 mph 88% 0 in 0.00 W/m2 CLR
07:29 56.7 °F 53.1 °F 30 in SSE 6.9 mph 5.1 mph 88% 0 in 0.00 W/m2 CLR
07:34 56.7 °F 53.2 °F 30 in SSE 8.1 mph 5.8 mph 88% 0 in 0.00 W/m2 CLR
07:39 56.8 °F 53.2 °F 30 in SSE 8.1 mph 6.2 mph 88% 0 in 0.00 W/m2 CLR
07:44 56.8 °F 53.2 °F 30 in SSE 8.1 mph 6 mph 88% 0 in 0.00 W/m2 CLR
07:49 56.8 °F 53.4 °F 30 in SSE 8.1 mph 6.2 mph 88% 0 in 7.00 W/m2 CLR
07:54 56.8 °F 53.4 °F 30 in SSE 8.1 mph 6.6 mph 88% 0 in 11.00 W/m2 CLR
07:59 56.8 °F 53.4 °F 30 in SSE 8.1 mph 6 mph 88% 0 in 9.00 W/m2 CLR
08:04 56.8 °F 53.2 °F 30 in South 9.2 mph 6.2 mph 88% 0 in 11.00 W/m2 OVC
08:09 56.8 °F 53.8 °F 30 in SSE 10.4 mph 6.5 mph 89% 0 in 14.00 W/m2 OVC
08:14 56.8 °F 53.4 °F 30 in SSE 10.4 mph 7.2 mph 88% 0 in 16.00 W/m2 OVC
08:19 56.8 °F 53.8 °F 30 in SSE 10 mph 7.5 mph 89% 0 in 21.00 W/m2 OVC
08:24 57 °F 54 °F 30 in South 10.4 mph 6.9 mph 89% 0 in 26.00 W/m2 OVC
08:29 57 °F 54 °F 30 in South 11.5 mph 7.5 mph 89% 0 in 30.00 W/m2 OVC
08:34 57.2 °F 53.8 °F 30 in SSE 11.5 mph 7.4 mph 88% 0 in 39.00 W/m2 OVC
08:39 57.4 °F 54.1 °F 30 in SSE 10 mph 6.8 mph 89% 0 in 51.00 W/m2 OVC
08:44 57.6 °F 54.1 °F 30 in South 10.4 mph 8 mph 88% 0 in 62.00 W/m2 OVC
08:49 57.7 °F 54.1 °F 30 in SSE 10.4 mph 8.3 mph 88% 0 in 63.00 W/m2 OVC
08:54 57.7 °F 54.3 °F 30 in SSE 10.4 mph 8.3 mph 88% 0 in 77.00 W/m2 OVC
08:59 57.7 °F 54.3 °F 30 in SSE 11 mph 7.9 mph 88% 0 in 86.00 W/m2 OVC
09:04 57.9 °F 54.5 °F 30 in SSE 11 mph 8 mph 88% 0 in 90.00 W/m2 OVC
09:09 58.3 °F 54.7 °F 30 in South 12 mph 7.8 mph 88% 0 in 102.00 W/m2 BKN
09:11 58.3 °F 54.9 °F 30 in SSE 11.5 mph 8.4 mph 88% 0 in 98.00 W/m2 SCT
10:30 58.6 °F 54.7 °F 30 in SSE 9 mph 18 mph 87% 0 in 87.00 W/m2 CLR
11:00 59.9 °F 55.8 °F 30 in SSE 12 mph 17 mph 86% 0.01 in 206.00 W/m2 CLR
13:39 70 °F 59 °F 30 in South 18.4 mph 15.5 mph 68% 0 in 366.00 W/m2 OVC
13:43 70 °F 57.9 °F 30 in SSE 18.4 mph 14.2 mph 66% 0 in 348.00 W/m2 CLR
13:49 69.6 °F 57.7 °F 30 in SE 20.7 mph 13 mph 66% 0 in 323.00 W/m2 FEW
13:54 69.6 °F 58.3 °F 30 in SSE 20.7 mph 14.9 mph 67% 0 in 248.00 W/m2 FEW
13:59 69.8 °F 57.9 °F 30 in SSE 19.6 mph 14.7 mph 66% 0 in 383.00 W/m2 FEW
14:04 70 °F 57.9 °F 30 in SSE 19.6 mph 13.3 mph 66% 0 in 387.00 W/m2 FEW
14:09 70 °F 58.1 °F 30 in South 17.3 mph 13 mph 66% 0 in 397.00 W/m2 CLR
14:14 70.2 °F 57.4 °F 30 in SSE 19.6 mph 12.1 mph 64% 0 in 387.00 W/m2 CLR
14:18 70.2 °F 57.4 °F 30 in SSE 19.6 mph 14.1 mph 64% 0 in 410.00 W/m2 CLR
14:24 70.3 °F 57.6 °F 30 in SSE 18.4 mph 13.4 mph 64% 0 in 483.00 W/m2 CLR
14:29 70.7 °F 57.9 °F 30 in SSE 18.4 mph 13.9 mph 64% 0 in 432.00 W/m2 CLR
14:34 70.9 °F 57.7 °F 30 in SSW 22 mph 12.8 mph 63% 0 in 364.00 W/m2 CLR
14:39 70.9 °F 57.7 °F 30 in SSE 16 mph 11.5 mph 63% 0 in 360.00 W/m2 CLR
14:44 70.9 °F 57 °F 30 in SSE 19 mph 11.9 mph 62% 0 in 352.00 W/m2 FEW
14:49 70.9 °F 57.6 °F 30 in SSE 16.1 mph 12 mph 63% 0 in 343.00 W/m2 FEW
14:54 71.1 °F 57.4 °F 30 in SSE 18 mph 11.7 mph 62% 0 in 388.00 W/m2 FEW
14:59 71.1 °F 57.4 °F 30 in SSE 18.4 mph 12 mph 62% 0 in 383.00 W/m2 FEW
15:04 71.2 °F 56.7 °F 30 in SSE 18.4 mph 13 mph 60% 0 in 404.00 W/m2 CLR
15:09 71.4 °F 56.3 °F 30 in SSE 17.3 mph 13.1 mph 59% 0 in 373.00 W/m2 CLR
15:14 71.8 °F 57 °F 30 in SSE 17.3 mph 10.6 mph 60% 0 in 381.00 W/m2 CLR
15:19 71.8 °F 57 °F 30 in SSE 17.3 mph 12.6 mph 60% 0 in 392.00 W/m2 CLR
15:24 71.8 °F 57.2 °F 30 in SSE 17.3 mph 12 mph 60% 0 in 385.00 W/m2 CLR
15:29 72.1 °F 57.9 °F 30 in SSE 16.1 mph 11 mph 61% 0 in 374.00 W/m2 CLR
15:34 72.1 °F 57.6 °F 30 in SSE 18.4 mph 12.1 mph 60% 0 in 404.00 W/m2 CLR
15:39 72.3 °F 57.6 °F 30 in SSE 17 mph 10 mph 60% 0 in 376.00 W/m2 CLR
15:44 72.3 °F 57.2 °F 30 in South 17.3 mph 13 mph 59% 0 in 373.00 W/m2 CLR
15:49 72.3 °F 57.2 °F 30 in SSE 19.6 mph 13.4 mph 59% 0 in 262.00 W/m2 CLR
15:54 72 °F 57.4 °F 30 in South 19.6 mph 10.1 mph 60% 0 in 109.00 W/m2 SCT
15:59 71.4 °F 57.4 °F 30 in SSE 15 mph 9.6 mph 61% 0 in 190.00 W/m2 SCT
16:04 71.2 °F 57.2 °F 30 in SSE 11.5 mph 8.8 mph 61% 0 in 265.00 W/m2 BKN
16:08 71.4 °F 57.7 °F 30 in SSE 12 mph 9.3 mph 62% 0 in 188.00 W/m2 BKN
16:14 71.8 °F 58.5 °F 30 in South 12 mph 8.9 mph 63% 0 in 376.00 W/m2 SCT
16:19 72 °F 58.3 °F 30 in SSE 12.7 mph 10.4 mph 62% 0 in 355.00 W/m2 FEW
16:24 72.1 °F 57.9 °F 30 in SSE 12.7 mph 9.6 mph 61% 0 in 230.00 W/m2 FEW
16:29 72.1 °F 58.5 °F 30 in SSE 12.7 mph 9.7 mph 62% 0 in 323.00 W/m2 FEW
16:34 72.3 °F 58.5 °F 30 in SSE 11.5 mph 7.2 mph 62% 0 in 278.00 W/m2 FEW
16:39 72.7 °F 59.4 °F 30 in SSE 12.7 mph 8 mph 63% 0 in 188.00 W/m2 FEW
16:44 72.3 °F 58.6 °F 30 in South 9.2 mph 7.6 mph 62% 0 in 195.00 W/m2 SCT
16:49 72.1 °F 58.8 °F 30 in South 11.5 mph 7.8 mph 63% 0 in 118.00 W/m2 SCT
16:54 72 °F 59.2 °F 30 in SSE 9.2 mph 6.5 mph 64% 0 in 141.00 W/m2 BKN
16:59 72 °F 59.5 °F 30 in SSE 10.4 mph 6 mph 65% 0 in 111.00 W/m2 BKN
17:04 71.8 °F 59.7 °F 30 in SSE 9.2 mph 3.9 mph 66% 0 in 90.00 W/m2 BKN
17:09 71.4 °F 59.5 °F 30 in SE 8.1 mph 5.1 mph 66% 0 in 77.00 W/m2 BKN
17:14 71.2 °F 59.7 °F 30 in SSE 6.9 mph 5.1 mph 67% 0 in 76.00 W/m2 BKN
17:19 71.1 °F 59.5 °F 30 in SE 6.9 mph 4.3 mph 67% 0 in 69.00 W/m2 BKN
17:24 70.9 °F 59.7 °F 30 in SSE 8.1 mph 4.7 mph 68% 0 in 158.00 W/m2 BKN
17:29 71.1 °F 59.9 °F 30 in SSE 8.1 mph 5.3 mph 68% 0 in 148.00 W/m2 BKN
17:34 71.2 °F 60.4 °F 30 in SE 8.1 mph 4.7 mph 69% 0 in 128.00 W/m2 SCT
17:39 71.2 °F 60.4 °F 30 in SE 9.2 mph 6.3 mph 69% 0 in 120.00 W/m2 SCT
17:44 71.1 °F 60.8 °F 30 in SSE 11.5 mph 5.9 mph 70% 0 in 120.00 W/m2 SCT
17:49 71.1 °F 60.6 °F 30 in SE 10 mph 6.3 mph 70% 0 in 113.00 W/m2 SCT
17:54 70.9 °F 60.6 °F 30 in SE 9.2 mph 6.5 mph 70% 0 in 81.00 W/m2 BKN
17:59 70.9 °F 60.6 °F 30 in SSE 9.2 mph 7 mph 70% 0 in 72.00 W/m2 BKN
18:04 70.9 °F 60.4 °F 30 in ESE 10 mph 6.6 mph 70% 0 in 47.00 W/m2 BKN
18:09 70.5 °F 60.6 °F 30 in SSE 11.5 mph 7.1 mph 71% 0 in 32.00 W/m2 BKN
18:14 70.3 °F 60.4 °F 30 in SSE 11.5 mph 6.9 mph 71% 0 in 19.00 W/m2 BKN
18:18 70.3 °F 60.8 °F 30 in SSE 9.2 mph 6.7 mph 72% 0 in 19.00 W/m2 BKN
19:00 70.3 °F 60.8 °F 30 in SSE 7 mph 12 mph 72% 0 in 20.00 W/m2 OVC
19:19 68.7 °F 61 °F 30 in SSE 11.5 mph 8.2 mph 76% 0 in 0.00 W/m2 CLR
19:22 68.7 °F 61 °F 30 in SSE 11.5 mph 8.6 mph 76% 0 in 0.00 W/m2 CLR
19:29 68.5 °F 61 °F 30 in SSE 11.5 mph 9.2 mph 77% 0 in 0.00 W/m2 CLR
19:34 68.5 °F 61 °F 30 in SSE 11.5 mph 8.4 mph 77% 0 in 0.00 W/m2 CLR
19:39 68.5 °F 61 °F 30 in SE 11.5 mph 7.5 mph 77% 0 in 0.00 W/m2 CLR
19:44 68.7 °F 60.8 °F 30 in SSE 11.5 mph 8.6 mph 76% 0 in 0.00 W/m2 CLR
19:49 68.7 °F 60.8 °F 30 in SE 11.5 mph 9 mph 76% 0 in 0.00 W/m2 CLR
19:54 68.5 °F 61 °F 30 in SSE 11.5 mph 7.7 mph 77% 0 in 0.00 W/m2 CLR
19:58 68.4 °F 60.8 °F 30 in SE 11.5 mph 7.2 mph 77% 0 in 0.00 W/m2 CLR
20:03 68.2 °F 60.6 °F 30 in SE 10.4 mph 6.5 mph 77% 0 in 0.00 W/m2 CLR
20:08 68.2 °F 61 °F 30 in SSE 10.4 mph 6.1 mph 78% 0 in 0.00 W/m2 CLR
20:14 67.8 °F 60.8 °F 30 in SSE 12 mph 6.6 mph 78% 0 in 0.00 W/m2 CLR
20:18 67.8 °F 60.6 °F 30 in SE 10.4 mph 6.9 mph 78% 0 in 0.00 W/m2 CLR
20:24 67.5 °F 60.8 °F 30 in SSE 11.5 mph 7.4 mph 79% 0 in 0.00 W/m2 CLR
20:28 67.5 °F 60.8 °F 30 in SSE 11.5 mph 7.2 mph 79% 0 in 0.00 W/m2 CLR
20:34 67.5 °F 60.6 °F 30 in SSE 12.7 mph 8.2 mph 79% 0 in 0.00 W/m2 CLR
20:38 67.3 °F 60.6 °F 30 in SE 12.7 mph 8.9 mph 79% 0 in 0.00 W/m2 CLR
20:44 67.5 °F 60.6 °F 30 in SSE 12 mph 8.1 mph 79% 0 in 0.00 W/m2 CLR
20:49 67.5 °F 60.6 °F 30 in South 11.5 mph 7.5 mph 79% 0 in 0.00 W/m2 CLR
20:54 67.5 °F 60.8 °F 30 in South 11.5 mph 6.9 mph 79% 0 in 0.00 W/m2 CLR
20:59 67.6 °F 61 °F 30 in SE 11.5 mph 7 mph 79% 0 in 0.00 W/m2 CLR
21:03 67.6 °F 61 °F 30 in ESE 11.5 mph 7.7 mph 79% 0 in 0.00 W/m2 CLR
21:09 67.6 °F 61 °F 30 in SSE 10.4 mph 7.3 mph 79% 0 in 0.00 W/m2 CLR
21:13 67.6 °F 61 °F 30 in SE 11.5 mph 7.6 mph 79% 0 in 0.00 W/m2 CLR
21:19 67.6 °F 61 °F 30 in SSE 13 mph 7.2 mph 79% 0 in 0.00 W/m2 CLR
21:24 67.6 °F 61 °F 30 in SSE 11.5 mph 7.5 mph 79% 0 in 0.00 W/m2 CLR
21:28 67.6 °F 61 °F 30 in SSE 11.5 mph 8.9 mph 79% 0 in 0.00 W/m2 CLR
21:33 67.6 °F 61 °F 30 in SE 11.5 mph 7.8 mph 79% 0 in 0.00 W/m2 CLR
21:38 67.5 °F 60.6 °F 30 in SSE 11.5 mph 6.6 mph 79% 0 in 0.00 W/m2 CLR
21:44 67.5 °F 60.6 °F 30 in SE 12.7 mph 8.1 mph 79% 0 in 0.00 W/m2 CLR
21:49 67.3 °F 60.6 °F 30 in SE 12.7 mph 8.8 mph 79% 0 in 0.00 W/m2 CLR
21:54 67.3 °F 60.6 °F 30 in SSE 12.7 mph 9.2 mph 79% 0 in 0.00 W/m2 CLR
21:59 67.3 °F 60.6 °F 30 in SE 12.7 mph 9.6 mph 79% 0 in 0.00 W/m2 CLR
22:04 67.5 °F 60.6 °F 30 in SSE 12.7 mph 9.4 mph 79% 0 in 0.00 W/m2 CLR
22:07 67.3 °F 60.6 °F 30 in SSE 12.7 mph 8.7 mph 79% 0 in 0.00 W/m2 CLR
22:13 67.5 °F 60.6 °F 30 in SSE 13 mph 9.5 mph 79% 0 in 0.00 W/m2 CLR
22:19 67.5 °F 60.4 °F 30 in SSE 11.5 mph 9.4 mph 78% 0 in 0.00 W/m2 CLR
22:24 67.6 °F 60.4 °F 30 in SSE 12 mph 8.4 mph 78% 0 in 0.00 W/m2 CLR
22:28 67.6 °F 60.4 °F 30 in SSE 12.7 mph 7.9 mph 78% 0 in 0.00 W/m2 CLR
22:34 67.6 °F 60.4 °F 30 in SSE 12.7 mph 8.1 mph 78% 0 in 0.00 W/m2 CLR
22:38 67.6 °F 60.4 °F 30 in South 13 mph 8.3 mph 78% 0 in 0.00 W/m2 CLR
22:43 67.5 °F 60.4 °F 30 in SSE 12.7 mph 8.7 mph 78% 0 in 0.00 W/m2 CLR
22:48 67.5 °F 60.3 °F 30 in South 12.7 mph 9.1 mph 78% 0 in 0.00 W/m2 CLR
22:53 67.5 °F 60.3 °F 30 in South 11.5 mph 8.4 mph 78% 0 in 0.00 W/m2 CLR
22:58 67.3 °F 60.1 °F 30 in SSE 11.5 mph 7.9 mph 78% 0 in 0.00 W/m2 CLR
23:04 67.1 °F 60.4 °F 30 in SSE 10.4 mph 7.7 mph 79% 0 in 0.00 W/m2 CLR
23:09 66.9 °F 60.3 °F 30 in SSE 10.4 mph 8.2 mph 79% 0 in 0.00 W/m2 CLR
23:13 66.7 °F 60.1 °F 30 in SSE 10.4 mph 7.8 mph 79% 0 in 0.00 W/m2 CLR
23:18 66.7 °F 60.1 °F 30 in SSE 9.2 mph 7.2 mph 79% 0 in 0.00 W/m2 CLR
23:23 66.7 °F 60.1 °F 30 in SSE 9.2 mph 6.9 mph 79% 0 in 0.00 W/m2 CLR
23:29 66.6 °F 59.7 °F 30 in South 11 mph 7.5 mph 79% 0 in 0.00 W/m2 CLR
23:33 66.4 °F 59.7 °F 30 in SSE 9.2 mph 7.5 mph 79% 0 in 0.00 W/m2 CLR
23:38 66.4 °F 59.9 °F 30 in SSE 11.5 mph 6.9 mph 80% 0 in 0.00 W/m2 CLR
23:44 66 °F 59.7 °F 30 in SSE 11.5 mph 6.2 mph 80% 0 in 0.00 W/m2 CLR
23:49 65.8 °F 59.5 °F 30 in South 9.2 mph 5.3 mph 80% 0 in 0.00 W/m2 CLR
23:54 65.8 °F 59.5 °F 30 in SSE 6.9 mph 4.9 mph 80% 0 in 0.00 W/m2 CLR
23:58 65.7 °F 59.5 °F 30 in SSE 5.8 mph 4.8 mph 81% 0 in 0.00 W/m2 CLR
Juneau County Weather